San Jose, Costa Rica

10:29 AM CST on June 26, 2017 (GMT -0600)
Juan Santamaria International

Weather History for MROC - January, 2003

Change the Weather History Date:

Monday, January 20, 2003

  Actual Average Record
Temperature  
Mean Temperature 76 °F -  
Max Temperature 82 °F 81 °F 102 °F (1998)
Min Temperature 69 °F 64 °F 35 °F (2002)
Cooling Degree Days 10    
Growing Degree Days 26 (Base 50)    
Moisture  
Dew Point 59 °F    
Average Humidity 59    
Maximum Humidity 73    
Minimum Humidity 47    
Precipitation  
Precipitation 0.00 in 0.01 in - ()
Sea Level Pressure  
Sea Level Pressure 30.04 in    
Wind  
Wind Speed 15 mph ()    
Max Wind Speed 24 mph    
Max Gust Speed -    
Visibility 6.2 miles    
Events      
Averages and records for this station are not official NWS values.
T = Trace of Precipitation, MM = Missing Value Source: Averaged Metar Reports

Daily Weather History Graph

Daily Weather History Graph

Search for Another Location

Airport or City:

Trip Planner

Search our weather history database for the weather conditions in past years. The results will help you decide how hot, cold, wet, or windy it might be!

Date:

Astronomy

Jan. 20, 2003 Rise Set
Actual Time 5:59 AM CST 5:36 PM CST
Civil Twilight 5:36 AM CST 5:59 PM CST
Nautical Twilight 5:10 AM CST 6:24 PM CST
Astronomical Twilight 4:45 AM CST 6:50 PM CST
Moon 7:59 PM CST (1/20) 7:56 AM CST (1/20)
Length of Visible Light 12h 22m
Length of Day
11h 37m
Waning Gibbous, 94% of the Moon is Illuminated
Jan 20
Waning Gibbous
Jan 25
Last Quarter
Feb 1
New
Feb 9
First Quarter
Feb 16
Full

Hourly Weather History & Observations

Time (CST) Temp. Heat Index Dew Point Humidity Pressure Visibility Wind Dir Wind Speed Gust Speed Precip Events Conditions
1:00 AM 69.8 °F - 60.8 °F 73% 30.05 in 6.2 mi East 17.3 mph - N/A   Partly Cloudy
2:00 AM 69.8 °F - 60.8 °F 73% 30.04 in - East 16.1 mph - N/A   Clear
3:00 AM 69.8 °F - 60.8 °F 73% 30.03 in - East 18.4 mph - N/A   Clear
4:00 AM 69.8 °F - 57.2 °F 64% 30.04 in - East 13.8 mph - N/A   Clear
5:00 AM 69.8 °F - 57.2 °F 64% 30.05 in - East 12.7 mph - N/A   Clear
6:00 AM 69.8 °F - 57.2 °F 64% 30.06 in - East 15.0 mph - N/A   Clear
7:00 AM 71.6 °F - 59.0 °F 64% 30.08 in 6.2 mi East 12.7 mph - N/A   Partly Cloudy
8:00 AM 75.2 °F - 59.0 °F 57% 30.09 in 6.2 mi East 18.4 mph - N/A   Partly Cloudy
9:00 AM 78.8 °F - 57.2 °F 47% 30.09 in 6.2 mi East 20.7 mph - N/A   Partly Cloudy
10:00 AM 78.8 °F - 57.2 °F 47% 30.09 in 6.2 mi ENE 19.6 mph - N/A   Partly Cloudy
11:00 AM 78.8 °F - 59.0 °F 51% 30.07 in 6.2 mi East 19.6 mph - N/A   Partly Cloudy
12:00 PM 80.6 °F 81.5 °F 60.8 °F 51% 30.05 in 6.2 mi ENE 18.4 mph - N/A   Partly Cloudy
1:00 PM 82.4 °F 83.4 °F 62.6 °F 51% 30.01 in 6.2 mi East 24.2 mph - N/A   Scattered Clouds
2:00 PM 80.6 °F 81.5 °F 60.8 °F 51% 29.99 in 6.2 mi ENE 17.3 mph - N/A   Scattered Clouds
3:00 PM 80.6 °F 81.5 °F 60.8 °F 51% 29.98 in 6.2 mi ENE 15.0 mph - N/A   Scattered Clouds
4:00 PM 77.0 °F - 59.0 °F 54% 29.98 in 6.2 mi East 18.4 mph - N/A   Scattered Clouds
5:00 PM 77.0 °F - 60.8 °F 57% 29.98 in 6.2 mi East 17.3 mph - N/A   Scattered Clouds
6:00 PM 73.4 °F - 60.8 °F 65% 29.99 in 6.2 mi East 15.0 mph - N/A   Scattered Clouds
7:00 PM 71.6 °F - 57.2 °F 60% 30.02 in 6.2 mi ENE 16.1 mph - N/A   Partly Cloudy
8:00 PM 71.6 °F - 57.2 °F 60% 30.03 in 6.2 mi ENE 17.3 mph - N/A   Partly Cloudy
9:00 PM 71.6 °F - 59.0 °F 64% 30.05 in - ENE 15.0 mph - N/A   Clear
10:00 PM 71.6 °F - 57.2 °F 60% 30.06 in - East 17.3 mph - N/A   Clear
11:00 PM 71.6 °F - 57.2 °F 60% 30.06 in - East 12.7 mph - N/A   Clear